Wind_Speed
30 35 44 40 37 33 31 32 35 32 24 27 29 32 31 28 30 25 17 20 18 21 18 17 19 24 20 20 20 19 10 14 16 51 43 47 56 51 44 39 37 35 33 33
31 45 40 33 31 29 23 28 34 29 26 25 24 35 33 30 24 18 28 17 17 22 18 16 18 17 12 16 14 17 9 9 22 22 36 52 49 44 40 38 37 35 33 32
37 27 13 16 26 27 32 36 35 28 28 26 32 40 29 23 24 27 20 15 16 18 15 14 16 9 9 15 11 11 8 8 8 32 46 53 45 45 43 41 39 36 33 31
25 26 33 32 25 20 23 19 22 20 18 14 11 10 20 28 19 19 17 11 13 12 11 13 14 9 6 12 12 12 5 17 19 28 35 38 41 42 39 36 35 34 32 32
21 14 12 25 34 29 32 21 15 17 21 21 24 14 12 24 17 9 15 10 8 9 11 11 11 7 5 12 12 10 13 7 22 25 31 25 36 35 35 34 34 35 33 33
34 26 13 11 16 18 26 21 18 17 15 8 17 18 6 7 11 4 10 8 6 6 6 8 10 10 7 8 16 13 12 7 20 25 35 36 36 35 38 39 39 37 36 33
31 37 32 24 21 13 19 18 2 2 4 7 8 14 28 7 12 9 10 14 11 4 3 6 11 10 8 7 14 16 15 14 17 15 20 36 37 40 40 38 37 37 36 34
11 8 14 21 33 31 28 28 10 7 5 4 8 9 7 4 17 22 22 9 9 8 4 7 11 10 9 10 10 19 19 21 21 17 17 24 28 43 44 43 38 34 32 29
4 10 14 16 9 22 20 32 29 15 14 5 8 14 12 13 18 18 17 18 14 12 6 8 10 11 9 11 12 12 19 21 20 21 23 26 27 35 39 41 41 39 35 33
5 10 17 8 8 13 26 10 11 17 4 5 6 10 13 11 8 26 25 20 14 11 9 10 9 10 9 7 9 13 15 20 23 23 23 28 29 29 40 43 45 43 40 37
10 6 12 10 7 3 10 13 11 10 16 5 1 2 14 16 13 7 8 11 10 12 14 11 10 10 11 7 8 10 14 17 21 25 21 28 30 27 25 34 43 44 44 42
11 9 9 17 16 11 7 14 6 3 5 9 17 13 9 8 4 7 11 11 8 14 12 12 11 10 10 10 8 10 10 12 15 20 25 28 29 31 26 24 38 44 44 44
13 6 13 17 13 6 5 13 19 11 5 3 4 15 31 15 6 16 20 16 9 12 11 11 11 12 12 12 12 10 9 12 14 18 24 27 28 31 32 31 27 35 34 30
9 9 10 9 16 26 25 24 12 10 8 14 29 39 21 12 11 15 13 11 14 10 15 13 12 13 11 10 13 15 14 13 12 14 15 24 29 27 28 30 29 28 27 32
11 12 13 19 20 21 27 33 24 17 21 21 41 43 39 36 30 22 10 4 11 18 12 23 17 14 9 3 6 9 15 15 14 13 13 14 21 24 26 29 31 30 28 29
14 17 16 22 25 24 28 32 38 35 31 31 36 44 45 46 45 42 30 17 12 16 8 7 19 25 25 15 8 7 10 11 15 13 15 16 16 22 24 26 27 28 29 28
20 16 15 20 21 20 19 29 31 34 34 30 33 36 30 35 46 44 42 32 19 15 14 9 10 11 17 19 16 13 11 13 14 17 16 16 16 16 20 28 28 26 26 29
13 15 19 24 16 6 12 15 12 19 26 27 28 31 36 34 39 51 45 44 32 25 18 8 8 15 10 11 13 13 14 16 15 13 21 19 17 16 17 19 25 31 30 30
5 13 6 6 3 12 15 15 24 27 34 28 32 34 37 36 40 51 48 40 37 31 36 20 14 13 16 18 14 17 17 18 18 17 17 21 22 20 18 17 17 22 27 30
9 10 7 9 3 2 7 18 21 29 45 31 30 37 39 37 41 45 26 21 23 32 31 25 18 13 16 19 16 17 19 19 17 16 17 17 20 22 23 22 21 20 20 22
21 18 15 14 4 6 12 29 32 11 22 35 37 40 36 36 37 33 25 25 29 27 31 17 13 12 21 20 20 17 17 19 18 17 16 15 16 17 20 22 23 23 21 21
14 11 10 10 6 8 27 27 30 36 42 43 45 43 46 50 30 27 20 17 22 27 26 12 9 17 22 21 21 20 19 19 19 17 17 17 17 18 20 21 23 23 24 23
13 17 11 7 12 25 21 24 24 26 33 30 27 19 25 35 29 28 21 27 27 23 19 11 14 25 23 20 20 20 19 18 17 16 16 16 18 20 21 22 23 23 24 24
24 21 18 14 23 18 25 21 21 22 24 18 9 2 13 19 23 25 27 29 28 28 19 17 22 22 20 19 17 15 15 14 12 11 11 12 13 12 13 13 13 15 17 16
22 27 24 24 30 31 28 26 25 22 18 25 15 12 21 18 23 31 33 31 29 25 18 19 22 21 18 17 15 13 11 10 8 7 6 6 6 6 6 7 11 16 18 18
22 22 25 25 28 30 33 35 30 25 23 20 27 18 36 37 39 40 34 27 25 25 19 22 22 19 16 13 11 11 12 13 11 10 10 9 8 7 6 6 6 9 10 10
Wind_Direction
245 246 245 261 263 268 274 267 263 262 245 269 273 273 274 287 301 293 296 302 299 300 288 270 259 254 260 250 239 250 268 33 296 232 236 214 183 192 196 200 202 202 202 199
242 251 258 260 256 262 255 262 268 278 258 274 276 273 279 294 300 284 304 296 300 300 285 256 254 251 248 235 239 239 245 54 266 207 195 174 184 190 196 199 200 201 200 199
252 254 287 255 255 241 241 251 260 270 277 274 286 285 287 288 295 294 285 297 301 293 275 244 247 250 238 235 239 239 244 161 359 170 174 181 170 190 195 197 199 200 199 199
260 266 249 241 249 228 241 258 258 267 274 267 278 291 276 295 298 296 274 294 308 291 271 242 243 260 231 230 221 232 209 173 153 173 196 177 180 192 195 200 201 201 201 201
226 240 253 237 231 231 253 259 249 248 257 275 276 263 288 301 288 263 272 288 310 290 274 255 248 252 233 226 213 232 198 224 179 174 187 188 181 195 202 202 204 205 205 204
240 227 244 237 246 248 245 235 247 250 265 270 238 239 276 265 275 205 256 261 309 302 263 251 255 241 217 216 206 200 232 239 203 190 187 183 189 201 209 208 208 208 210 210
249 248 242 237 244 238 218 218 258 253 195 238 213 221 247 251 265 292 239 284 290 281 254 250 253 253 245 213 210 207 202 197 207 207 199 187 197 199 208 210 214 214 212 213
261 276 234 238 236 236 222 208 192 194 195 256 208 237 258 291 254 267 273 272 296 266 254 228 245 242 241 227 213 208 209 205 207 220 233 213 220 210 205 204 211 214 214 217
269 241 213 238 241 233 220 217 228 276 276 303 236 253 256 252 256 265 266 284 288 269 258 241 237 240 222 225 223 226 214 211 216 217 232 217 208 215 210 205 207 211 214 217
279 281 247 206 218 234 227 220 209 210 185 218 256 242 244 286 281 257 269 276 282 240 233 243 227 236 235 216 221 231 230 217 213 216 236 216 213 210 211 213 209 213 216 217
326 276 254 228 212 159 224 245 247 232 221 190 245 219 77 56 19 348 283 281 291 226 211 217 224 227 239 238 224 226 234 232 218 215 218 221 212 211 213 222 224 220 216 217
360 317 315 273 209 289 291 48 28 6 317 274 262 223 177 8 13 163 187 293 247 208 205 203 215 217 221 219 212 222 223 228 233 227 218 214 216 224 231 247 234 235 227 225
339 333 331 316 273 229 147 358 3 355 2 272 337 244 242 254 184 159 167 175 179 236 221 215 222 234 234 232 227 216 219 223 226 228 229 229 222 222 221 229 231 226 229 228
302 280 275 248 281 302 301 304 312 313 293 289 284 260 214 221 200 148 162 194 207 193 249 240 232 232 233 243 242 235 224 228 233 240 236 226 228 226 225 226 226 242 248 259
280 281 276 283 291 286 285 295 291 274 271 258 278 282 274 246 275 272 259 228 216 212 219 252 238 227 211 240 273 254 242 240 243 242 246 238 228 224 221 220 224 227 231 238
278 275 277 282 280 275 282 285 280 282 280 269 279 282 287 274 276 278 272 274 214 205 217 204 269 252 253 257 274 291 258 252 245 246 246 243 236 231 228 228 229 230 234 241
283 274 279 273 283 292 289 278 284 287 287 285 276 283 293 290 278 280 273 267 266 190 205 210 261 252 246 263 264 273 278 262 255 239 241 241 238 240 240 239 239 239 239 238
271 278 270 269 281 232 255 278 291 281 280 280 277 278 274 275 275 265 265 261 265 270 241 210 243 261 232 235 247 249 260 262 257 250 233 234 237 235 239 240 240 243 246 248
278 277 297 250 320 276 287 312 330 335 279 269 282 271 274 274 272 257 260 269 264 267 276 221 216 224 247 247 243 239 244 252 253 250 246 237 236 240 243 244 243 243 247 251
1 345 322 343 308 290 358 325 299 311 281 288 276 270 271 266 261 261 267 239 238 256 266 243 213 222 265 255 263 239 235 241 241 242 243 239 238 241 244 248 250 248 253 251
352 2 6 344 291 245 352 331 325 303 294 284 270 255 253 251 253 259 247 242 226 239 246 246 231 253 268 262 259 247 239 237 232 232 243 246 250 248 245 246 251 254 252 257
21 356 0 347 317 333 322 329 346 320 309 307 289 274 252 239 242 233 236 216 219 235 244 239 255 254 252 253 247 235 232 234 231 232 239 246 249 251 254 251 249 252 254 254
31 13 328 335 302 328 344 337 338 332 326 317 312 289 230 221 222 207 211 188 217 208 205 230 257 248 242 235 227 221 226 229 228 230 236 244 250 254 253 253 251 249 248 248
39 40 29 27 13 18 10 350 350 351 358 25 339 101 197 194 207 201 227 192 196 191 206 222 229 216 211 204 201 204 208 209 216 225 233 243 249 252 252 250 250 246 241 240
32 31 27 19 22 34 28 17 5 8 18 81 111 155 160 187 189 198 211 209 184 185 192 197 190 192 191 183 179 173 165 154 154 164 181 191 199 215 227 227 231 231 233 239
35 25 23 16 32 27 32 34 31 24 39 54 111 146 145 161 168 177 182 183 174 177 179 180 177 172 172 167 170 172 167 156 162 163 162 168 165 179 179 195 210 223 228 228
Height
3046 3043 3036 3044 3046 3047 3048 3047 3044 3045 3047 3044 3040 3036 3037 3037 3034 3030 3029 3027 3025 3022 3022 3024 3025 3028 3030 3030 3032 3030 3026 3019 3026 3033 3039 3042 3056 3072 3086 3094 3101 3108 3113 3118
3037 3026 3034 3039 3040 3040 3040 3039 3037 3038 3040 3039 3034 3027 3029 3031 3027 3025 3023 3022 3020 3017 3016 3016 3018 3022 3024 3027 3028 3024 3027 3026 3030 3022 3029 3044 3058 3075 3085 3091 3098 3104 3109 3114
3025 3025 3029 3031 3031 3032 3032 3033 3034 3036 3035 3033 3027 3018 3021 3023 3021 3019 3017 3018 3016 3013 3012 3012 3015 3018 3021 3023 3027 3028 3025 3025 3025 3023 3034 3045 3050 3071 3077 3085 3092 3100 3105 3111
3018 3018 3019 3023 3023 3026 3025 3029 3029 3033 3033 3030 3028 3015 3013 3017 3014 3012 3012 3013 3012 3011 3009 3011 3012 3015 3018 3020 3023 3024 3021 3026 3027 3036 3037 3039 3057 3068 3078 3086 3092 3098 3102 3107
3009 3012 3013 3013 3013 3022 3019 3025 3026 3028 3028 3025 3025 3024 3005 3010 3006 3006 3006 3009 3011 3008 3007 3008 3011 3014 3016 3017 3020 3022 3025 3026 3027 3033 3038 3043 3056 3069 3077 3083 3089 3094 3099 3103
3003 3008 3008 3011 3013 3016 3018 3021 3023 3024 3024 3020 3018 3020 3001 3003 3001 3001 3004 3006 3008 3007 3006 3006 3008 3011 3015 3016 3019 3022 3023 3025 3027 3033 3039 3046 3054 3065 3073 3077 3082 3088 3095 3099
3001 2999 3002 3007 3009 3012 3014 3017 3020 3024 3021 3012 3009 3011 2998 3001 2999 2999 3002 3003 3004 3006 3005 3005 3005 3008 3010 3015 3018 3020 3024 3027 3029 3033 3038 3045 3053 3059 3067 3075 3080 3084 3090 3095
2997 2995 2996 2997 2999 3003 3005 3009 3009 3016 3016 3006 3004 2999 2996 2996 2997 2997 2997 2999 3001 3003 3004 3005 3005 3006 3009 3012 3014 3020 3022 3026 3029 3032 3036 3040 3046 3051 3058 3064 3073 3080 3087 3092
2992 2989 2991 2993 2995 2998 2999 3000 3005 3004 3005 3006 2998 2992 2992 2994 2995 2995 2996 2997 2998 3001 3002 3004 3004 3005 3007 3010 3012 3013 3018 3021 3025 3029 3033 3037 3040 3047 3052 3058 3065 3072 3079 3085
2989 2987 2986 2988 2991 2994 2995 2997 3000 3002 3005 3004 2992 2991 2990 2992 2992 2992 2994 2995 2996 2997 2999 3001 3003 3003 3005 3007 3009 3011 3015 3018 3023 3026 3029 3032 3037 3041 3047 3053 3058 3065 3072 3076
2988 2987 2982 2985 2987 2989 2992 2990 2990 2992 2993 2993 2995 2990 2989 2990 2991 2991 2992 2993 2994 2995 2996 2999 3001 3002 3003 3004 3006 3010 3011 3014 3018 3020 3023 3026 3030 3035 3040 3046 3051 3057 3063 3069
2989 2987 2984 2982 2984 2988 2988 2988 2987 2990 2989 2989 2987 2986 2981 2982 2984 2985 2990 2993 2994 2995 2996 2997 2999 3000 3002 3003 3005 3006 3007 3009 3010 3014 3020 3022 3026 3030 3035 3039 3045 3049 3055 3062
2988 2987 2982 2977 2985 2983 2984 2988 2991 2994 2990 2990 2988 2972 2980 2982 2983 2982 2984 2985 2988 2996 2995 2996 2998 2999 3000 3002 3004 3005 3006 3007 3010 3012 3014 3016 3022 3026 3031 3036 3039 3042 3045 3049
2986 2987 2988 2988 2988 2985 2985 2988 2993 2993 2994 2990 2983 2966 2972 2976 2978 2979 2982 2983 2984 2986 2994 2994 2995 2997 2997 2997 2999 3001 3004 3007 3009 3007 3008 3011 3017 3023 3025 3030 3033 3035 3036 3038
2985 2984 2984 2983 2983 2983 2980 2974 2985 2987 2987 2985 2969 2967 2971 2970 2974 2973 2975 2976 2978 2982 2982 2990 2991 2993 2993 2994 2994 2995 2995 2995 2996 2999 3002 3006 3011 3017 3019 3024 3026 3027 3029 3033
2981 2980 2980 2978 2977 2978 2977 2975 2969 2972 2976 2974 2970 2962 2968 2965 2966 2969 2971 2971 2973 2975 2977 2980 2985 2987 2988 2988 2989 2990 2992 2993 2995 2997 2998 3001 3006 3008 3013 3014 3016 3020 3023 3027
2975 2975 2976 2972 2972 2974 2971 2967 2966 2965 2964 2966 2963 2957 2961 2958 2957 2962 2965 2967 2968 2971 2973 2975 2979 2983 2984 2984 2985 2987 2988 2989 2991 2993 2994 2998 3000 3002 3004 3007 3009 3012 3017 3022
2969 2970 2972 2966 2968 2968 2966 2962 2960 2957 2956 2956 2955 2953 2949 2950 2947 2949 2956 2961 2964 2966 2966 2970 2972 2976 2979 2981 2983 2984 2986 2988 2989 2991 2993 2995 2995 2998 3000 3002 3003 3006 3008 3012
2966 2965 2965 2962 2961 2961 2960 2956 2956 2953 2944 2949 2945 2943 2940 2942 2937 2935 2945 2951 2958 2962 2961 2964 2964 2967 2971 2975 2978 2980 2981 2983 2985 2986 2988 2989 2991 2995 2996 2997 2998 2999 3001 3004
2966 2966 2965 2963 2962 2958 2960 2956 2952 2949 2931 2938 2936 2931 2930 2930 2926 2927 2941 2943 2946 2953 2958 2957 2959 2961 2965 2968 2971 2973 2976 2978 2979 2981 2983 2985 2986 2988 2990 2990 2991 2994 2997 2999
2964 2961 2962 2961 2960 2956 2955 2951 2945 2944 2935 2928 2925 2917 2917 2915 2920 2926 2930 2933 2940 2945 2950 2952 2951 2954 2961 2963 2965 2967 2969 2971 2974 2976 2978 2980 2981 2982 2984 2985 2987 2989 2990 2992
2970 2967 2966 2964 2961 2957 2953 2947 2947 2938 2920 2910 2898 2892 2894 2901 2909 2916 2921 2922 2926 2933 2941 2944 2949 2952 2955 2958 2959 2961 2964 2967 2968 2970 2972 2974 2975 2976 2978 2979 2981 2983 2985 2987
2975 2975 2973 2971 2968 2962 2955 2949 2940 2929 2912 2894 2882 2874 2876 2889 2900 2908 2912 2914 2919 2927 2933 2939 2945 2949 2951 2952 2953 2955 2958 2961 2963 2965 2966 2968 2969 2971 2972 2974 2977 2979 2982 2983
2976 2973 2971 2968 2964 2957 2950 2943 2935 2923 2909 2886 2878 2874 2880 2890 2896 2903 2906 2906 2913 2921 2929 2935 2940 2945 2946 2948 2950 2953 2954 2956 2958 2959 2961 2963 2964 2965 2967 2969 2971 2974 2976 2978
2979 2975 2971 2968 2961 2955 2949 2939 2930 2920 2909 2886 2878 2878 2882 2890 2893 2896 2900 2905 2912 2921 2925 2931 2936 2940 2942 2944 2945 2949 2952 2953 2955 2956 2958 2960 2962 2964 2965 2966 2968 2969 2971 2973
2983 2978 2973 2970 2963 2958 2951 2941 2932 2921 2910 2901 2884 2883 2885 2889 2891 2894 2899 2908 2915 2920 2921 2927 2933 2935 2939 2941 2944 2947 2949 2951 2954 2956 2958 2959 2960 2962 2964 2966 2966 2967 2968 2968